sat.trackr.live / text

‹ back to catalog

STARLINK-4373

NORAD 53219 · 2022-084AG

PAYLOAD ACTIVE UNKNOWN

§ Identity

Operator
Country
US
Launch date
2022-07-22
Launch site
AFWTR
Launch vehicle
Mass (kg)
RCS (m²)

Purposes: comms

External: N2YO · Heavens-Above · Gunter

§ Orbital elements

Epoch: 2026-05-25T03:00:55.182816Z

Period
95.64 min
Inclination
97.4515°
Eccentricity
0.0000743
Mean motion
15.05658160 rev/d
Perigee alt
549.0 km
Apogee alt
550.0 km
Semi-major
6,927.6 km
B*
-4.4010e-4
RAAN
206.1745°
Arg perigee
87.1330°
Mean anomaly
272.9982°
Rev number
21,088

§ Raw data

STARLINK-43731 53219U 22084AG  26145.12563869 -.00006404  00000+0 -44010-3 0  99912 53219  97.4515 206.1745 0000743  87.1330 272.9982 15.05658160210889

JSON: /api/v1/satellites/53219 · /tle

For live sub-satellite position, see the globe view (requires WebGL).

§ Visibility from observer

Set your observer location to see the next 7 days of passes ≥ 10°. The values pass through the URL so the page stays shareable.

No JS? Fill the form by hand. The geolocation button needs JavaScript.